OpenBCM V1.08-5-g2f4a (Linux)

Packet Radio Mailbox

IZ3LSV

[San Dona' di P. JN]

 Login: GUEST





  
I0OJJ  > KEPS     07.12.25 12:00l 308 Lines 14709 Bytes #170 (0) @ AMSAT
BID : ORB25333.1
Read: GUEST
Subj: 2Line Orbital Elements 25333.AMSAT
Path: IZ3LSV<IW0QNL<HB9ON<DK0WUE<ZL2BAU<VK3AT<VE3QBZ<VE3CGR<CX2SA<EA2RCF<
      I0OJJ
Sent: 251129/0021z @:I0OJJ.ITA.EU [Rome] obcm1.08-11-2-gbfe9
From: I0OJJ @ I0OJJ.ITA.EU (Gustavo)
To:   KEPS @ AMSAT
X-Info: This message was generated automatically


QST de W1STR

AMSAT Orbital Elements for Amateur Satellites in TLE Format
From Orbital Analysis Office
New England Sci-Tech STEM Education Center
Natick MA November 29, 2025
To all radio amateurs


These element sets describe the orbits of various satellites 
in use by the amateur radio community. For details see:
www.amsat.org/keplerian-elements-formats/

A daily update of element sets is available at:
www.amsat.org/tle/daily-bulletin.txt
or without bulletin text:
www.amsat.org/tle/dailytle.txt


AO-07
1 07530U 74089B   25332.62299878 -.00000027  00000-0  12290-3 0  9996
2 07530 101.9971 338.7422 0012281 153.1584 322.8070 12.53693747335386
UO-11
1 14781U 84021B   25332.62455113  .00001617  00000-0  17302-3 0  9999
2 14781  97.7794 295.8749 0008960 120.8435 239.3665 14.90065880227259
AO-27
1 22825U 93061C   25332.45377999  .00000138  00000-0  69743-4 0  9991
2 22825  98.7165  34.6859 0007840 336.3112  23.7709 14.30868604678290
FO-29
1 24278U 96046B   25332.57723057 -.00000022  00000-0  16125-4 0  9993
2 24278  98.5470 203.6122 0348857 256.8041  99.3966 13.53261459446033
GO-32
1 25397U 98043D   25332.51714251  .00000111  00000-0  68204-4 0  9998
2 25397  98.9913 315.4018 0002305  80.5012 279.6426 14.24370759422764
ISS
1 25544U 98067A   25332.54438814  .00008991  00000-0  17015-3 0  9996
2 25544  51.6312 212.7497 0003745 179.2752 180.8242 15.49168962540650
NO-44
1 26931U 01043C   25332.83592817  .00000196  00000-0  10435-3 0  9999
2 26931  67.0521  42.4345 0007362 270.7550  89.2708 14.31842720261768
SO-50
1 27607U 02058C   25332.50303884  .00001780  00000-0  23097-3 0  9993
2 27607  64.5547  29.5978 0071496 299.2197  60.1770 14.82300410234701
CO-55
1 27844U 03031E   25332.53879042  .00000395  00000-0  19059-3 0  9999
2 27844  98.6769 338.6250 0010434  52.5019 307.7106 14.24160353163118
CO-57
1 27848U 03031J   25332.49841924  .00000332  00000-0  16506-3 0  9991
2 27848  98.6798 338.4587 0010525  69.1200 291.1104 14.23471334162826
RS-22
1 27939U 03042A   25332.86528720  .00001457  00000-0  23545-3 0  9991
2 27939  98.3366 146.6971 0011308 178.3988 313.5183 14.72906816186056
CO-58
1 28895U 05043F   25332.36931527  .00002106  00000-0  34483-3 0  9999
2 28895  98.2716 119.2054 0015278 120.7687 239.5026 14.71809877 72203
CO-65
1 32785U 08021C   25332.89341429  .00006418  00000-0  43511-3 0  9997
2 32785  97.8066 305.7893 0009526   0.3181 359.8050 15.06773107955009
CO-66
1 32791U 08021J   25332.53268497  .00017735  00000-0  72251-3 0  9995
2 32791  97.7442 317.1982 0001892 341.2095  18.9071 15.24539867956637
RS-30
1 32953U 08025A   25332.86828024  .00000051  00000-0  29352-3 0  9990
2 32953  82.5004 120.0503 0019437  31.1363 329.0864 12.43171547794800
SRMSAT
1 37841U 11058D   25332.33429150  .00000430  00000-0  89450-4 0  9997
2 37841  19.9704 195.1414 0011818 154.1073   1.6706 14.11503999729404
ZACUBE-1
1 39417U 13066B   25332.84033294  .00005904  00000-0  48543-3 0  9993
2 39417  97.8050 289.3658 0041056 192.1729 167.8505 14.98869573650691
Delfi-N3xt
1 39428U 13066N   25332.58716057  .00008196  00000-0  77469-3 0  9996
2 39428  97.8327 248.5769 0080264 151.4863 209.0782 14.91506915644680
GOMX-1
1 39430U 13066Q   25332.86577036  .00002195  00000-0  34044-3 0  9997
2 39430  97.6607 180.8586 0130824   1.1951 358.9543 14.68481662640505
LO-74
1 39440U 13066AA  25332.78821403  .00006075  00000-0  58894-3 0  9999
2 39440  97.8685 276.4815 0059317 332.9746  26.8387 14.91731470647094
AO-73
1 39444U 13066AE  25332.63348546  .00008148  00000-0  55930-3 0  9990
2 39444  97.8055 295.7447 0039546 161.7531 198.5124 15.05615240649445
DTUSAT-2
1 40030U 14033W   25332.43699152  .00009464  00000-0  56427-3 0  9992
2 40030  98.0754 313.1034 0007783 187.1647 172.9471 15.11381635622326
EO-80
1 40032U 14033Y   25332.51455839  .00008651  00000-0  51511-3 0  9991
2 40032  98.0632 312.5991 0009164 128.8845 231.3203 15.11449147622310
LILACSAT-2
1 40908U 15049K   25332.87076294  .00016672  00000-0  36572-3 0  9996
2 40908  97.4936 357.8316 0006233 257.9055 102.1495 15.44122155564761
IO-86
1 40931U 15052B   25151.18580175  .00001241  00000-0  78118-4 0  9996
2 40931   6.0006  24.0987 0012733 338.8432  21.1169 14.78805930523159
Horyu-4
1 41340U 16012D   25332.51388923  .00047630  00000-0  84774-3 0  9999
2 41340  30.9949  47.5189 0006194  93.4603 266.6755 15.48846127539344
Lapan A3
1 41603U 16040E   25332.84288635  .00004358  00000-0  14597-3 0  9993
2 41603  97.1432 330.9070 0011395  23.6544 336.5219 15.31386893524138
CAS-2T
1 41847U 16066G   25332.83540249  .00001070  00000-0  15958-3 0  9992
2 41847  98.4052  45.7110 0344328  17.2976 343.9610 14.44081766475876
TechnoSat
1 42829U 17042E   25332.48433453  .00003774  00000-0  28193-3 0  9995
2 42829  97.4015 133.3086 0019291  60.0931 300.2208 15.03231460456531
AO-91
1 43017U 17073E   25332.58335095  .00013052  00000-0  62249-3 0  9993
2 43017  97.4957 199.1040 0161107 299.4621  59.0615 15.08395405435100
S-Net D
1 43186U 18014G   25332.28188593  .00007777  00000-0  43059-3 0  9997
2 43186  97.5478 233.4893 0008997   5.7973 354.3361 15.14077236428331
S-Net B
1 43187U 18014H   25332.62016124  .00007177  00000-0  39784-3 0  9990
2 43187  97.5482 233.8040 0009510 359.3251   0.7966 15.14056614428389
S-Net A
1 43188U 18014J   25332.28165468  .00007785  00000-0  43092-3 0  9991
2 43188  97.5494 233.6428 0009412   1.3624 358.7632 15.14083382428333
S-Net C
1 43189U 18014K   25332.62308148  .00007052  00000-0  39093-3 0  9997
2 43189  97.5509 234.0245 0010548 351.3334   8.7714 15.14051312426936
Ten-Koh
1 43677U 18084G   25332.45273077  .00004081  00000-0  31891-3 0  9996
2 43677  98.0720 151.4974 0009340  63.4249 296.7930 15.01670284386029
PO-101
1 43678U 18084H   25332.83784002  .00002520  00000-0  21139-3 0  9994
2 43678  98.1031 155.7426 0007302  79.8982 280.3063 14.99325990386186
QO-100
1 43700U 18090A   25332.85537435  .00000165  00000-0  00000+0 0  9998
2 43700   0.0160 292.8408 0001167 305.7179 163.1870  1.00270633 25660
MinXSS-2
1 43758U 18099A   25332.46941089  .00028304  00000-0  87393-3 0  9990
2 43758  97.4817  39.6504 0008818 266.9628  93.0605 15.33477722383239
AO-95
1 43770U 18099N   25332.12808855  .00013635  00000-0  61008-3 0  9996
2 43770  97.4694  28.5231 0009187 342.8779  17.2145 15.21371820382595
SNUSat 2
1 43782U 18099AA  25332.09146893  .00011135  00000-0  55187-3 0  9996
2 43782  97.4381  23.7517 0009689 280.2895  79.7247 15.17876162382484
SnugLite
1 43784U 18099AC  25332.11892844  .00013538  00000-0  59968-3 0  9995
2 43784  97.4186  23.7750 0001641 282.4279  77.6773 15.21752834382685
ITASat 1
1 43786U 18099AE  25332.63797384  .00008208  00000-0  43290-3 0  9996
2 43786  97.4347  23.2454 0012821 336.9506  23.1150 15.15744110382497
EAGLET 1
1 43790U 18099AJ  25332.59931959  .00004874  00000-0  29606-3 0  9994
2 43790  97.4544  22.5007 0010499 325.4166  34.6380 15.10902134382029
ESEO
1 43792U 18099AL  25332.63836308  .00001653  00000-0  12572-3 0  9999
2 43792  97.4271  13.3989 0010203 303.5558  56.4693 15.03401542381667
JO-97
1 43803U 18099AX  25332.59093967  .00017043  00000-0  66109-3 0  9998
2 43803  97.4443  30.4587 0005292 259.7694 100.2947 15.26173415382953
Suomi 100
1 43804U 18099AY  25332.13558290  .00014152  00000-0  60796-3 0  9998
2 43804  97.4503  28.7145 0009736 268.5572  91.4549 15.22748169382769
ISAT
1 43879U 18111D   25332.77648093  .00039333  00000-0  97245-3 0  9993
2 43879  97.5895 251.9326 0005277 335.6344  24.4651 15.40353646380092
UWE-4
1 43880U 18111E   25332.28137805  .00026536  00000-0  82169-3 0  9995
2 43880  97.5841 248.4173 0009369 340.5188  19.5694 15.33396472379864
Sparrow
1 43881U 18111F   25332.78084697  .00043534  00000-0  10029-2 0  9993
2 43881  97.6078 255.6088 0006229  19.1187 341.0293 15.42460022380215
Prox-1
1 44339U 19036A   25332.79752705  .00015152  00000-0  17172-2 0  9993
2 44339  23.9975   7.0683 0006543 234.5621 125.4266 14.84642810343593
Taurus 1
1 44530U 19059C   25332.87574645  .00008198  00000-0  14123-2 0  9990
2 44530  98.6224 120.9689 0009122 216.6257 143.4324 14.68791839329200
Duchifat 3
1 44854U 19089C   25332.32203368  .00655264  17348-3  18266-2 0  9993
2 44854  36.9285 322.4147 0010265 185.4514 174.6147 15.92614449329835
TO-108
1 44881U 19093C   25332.83002987  .00001088  00000-0  13025-3 0  9990
2 44881  97.7775  44.7718 0014350  31.2806 328.9260 14.86052935321653
FloripaSat 1
1 44885U 19093G   25332.84556183  .00006911  00000-0  54556-3 0  9991
2 44885  97.8053  60.9742 0011666  20.3142 339.8543 15.00979589322569
RS-44
1 44909U 19096E   25332.78510971  .00000038  00000-0  11443-3 0  9991
2 44909  82.5192 112.8812 0216616 252.8283 104.9001 12.79745637276719
SALSAT
1 46495U 20068K   25332.50039330  .00009350  00000-0  36668-3 0  9991
2 46495  97.8784 319.0097 0008758 290.1532  69.8762 15.25961112284715
CSS (TIANHE-1)
1 48274U 21035A   25332.81128753  .00014135  00000-0  18429-3 0  9997
2 48274  41.4665 101.2121 0010733 289.4179  70.5498 15.58372273261853
TUBIN
1 48900U 21059X   25332.82366866  .00407045  70729-4  90903-3 0  9991
2 48900  97.6669 159.1637 0002712 302.5639  57.5375 15.97818047247092
CUTE
1 49263U 21088D   25332.77364883  .00028540  00000-0  38917-3 0  9994
2 49263  97.4358  55.0090 0004758 331.8945  28.2053 15.57467779231125
TeikyoSat 4
1 49396U 21102B   25332.80567757  .00001820  00000-0  12033-3 0  9990
2 49396  97.3919   4.9284 0010550 261.6611  98.3422 15.08543601222504
Z-Sat
1 49399U 21102E   25332.85310644  .00005651  00000-0  29471-3 0  9999
2 49399  97.3606   9.2148 0016178 221.8903 138.1093 15.16232359223064
